| time (UTC) | temp F | wind direction | speed MPH | gust MPH | rain 1hr in | rain 24hr in | rain mn in | humidity % | barometer mb |
| 20260507141830 | 45 | 270 | 5.0 | 0.0 | 0.00 | 0.00 | 0.00 | 63 | 976.5 |
| 20260507141333 | 45 | 291 | 0.0 | 0.0 | 0.00 | 0.00 | 0.00 | 64 | 976.4 |
| 20260507141153 | 45 | 291 | 0.0 | 0.0 | 0.00 | 0.00 | 0.00 | 64 | 976.4 |
| 20260507140512 | 45 | 271 | 4.0 | 7.0 | 0.00 | 0.00 | 0.00 | 63 | 976.4 |
| 20260507135834 | 45 | 253 | 2.0 | 6.0 | 0.00 | 0.00 | 0.00 | 63 | 976.4 |
| 20260507135341 | 46 | 246 | 4.0 | 8.0 | 0.00 | 0.00 | 0.00 | 68 | 976.4 |
| 20260507135154 | 46 | 246 | 4.0 | 8.0 | 0.00 | 0.00 | 0.00 | 68 | 976.4 |
| 20260507134516 | 46 | 314 | 1.0 | 0.0 | 0.00 | 0.00 | 0.00 | 71 | 976.4 |
| 20260507133910 | 45 | 194 | 2.0 | 0.0 | 0.00 | 0.00 | 0.00 | 74 | 976.4 |
| 20260507133835 | 45 | 194 | 2.0 | 0.0 | 0.00 | 0.00 | 0.00 | 74 | 976.4 |
| 20260507133310 | 45 | 255 | 0.0 | 0.0 | 0.00 | 0.00 | 0.00 | 74 | 976.4 |
| 20260507133158 | 45 | 255 | 0.0 | 0.0 | 0.00 | 0.00 | 0.00 | 74 | 976.4 |
| 20260507132517 | 45 | 210 | 1.0 | 0.0 | 0.00 | 0.00 | 0.00 | 76 | 976.3 |
| 20260507131840 | 44 | 35 | 0.0 | 0.0 | 0.00 | 0.00 | 0.00 | 78 | 976.3 |
| 20260507131342 | 44 | 35 | 0.0 | 0.0 | 0.00 | 0.00 | 0.00 | 78 | 976.3 |
| 20260507131159 | 44 | 35 | 0.0 | 0.0 | 0.00 | 0.00 | 0.00 | 78 | 976.3 |
| 20260507130620 | 44 | 35 | 0.0 | 0.0 | 0.00 | 0.00 | 0.00 | 78 | 976.3 |
| 20260507130522 | 44 | 35 | 0.0 | 0.0 | 0.00 | 0.00 | 0.00 | 78 | 976.3 |
| 20260507125923 | 44 | 249 | 0.0 | 0.0 | 0.00 | 0.00 | 0.00 | 80 | 976.4 |
| 20260507125841 | 44 | 249 | 0.0 | 0.0 | 0.00 | 0.00 | 0.00 | 80 | 976.4 |
| 20260507124523 | 43 | 274 | 0.0 | 0.0 | 0.00 | 0.00 | 0.00 | 79 | 976.5 |
| 20260507123919 | 42 | 274 | 0.0 | 0.0 | 0.00 | 0.00 | 0.00 | 82 | 976.5 |
| 20260507123845 | 42 | 274 | 0.0 | 0.0 | 0.00 | 0.00 | 0.00 | 82 | 976.5 |
| 20260507123204 | 42 | 274 | 0.0 | 0.0 | 0.00 | 0.00 | 0.00 | 86 | 976.6 |
| 20260507122742 | 41 | 274 | 0.0 | 0.0 | 0.00 | 0.00 | 0.00 | 87 | 976.6 |
| 20260507122527 | 41 | 274 | 0.0 | 0.0 | 0.00 | 0.00 | 0.00 | 87 | 976.6 |
| 20260507121936 | 41 | 274 | 0.0 | 0.0 | 0.00 | 0.00 | 0.00 | 90 | 976.8 |
| 20260507121846 | 41 | 274 | 0.0 | 0.0 | 0.00 | 0.00 | 0.00 | 90 | 976.8 |
| 20260507121209 | 40 | 274 | 0.0 | 0.0 | 0.00 | 0.00 | 0.00 | 90 | 976.9 |
| 20260507120528 | 39 | 274 | 0.0 | 0.0 | 0.00 | 0.00 | 0.00 | 92 | 976.9 |
| 20260507115851 | 39 | 274 | 0.0 | 0.0 | 0.00 | 0.00 | 0.00 | 94 | 976.9 |
| 20260507114629 | 37 | 274 | 0.0 | 0.0 | 0.00 | 0.00 | 0.00 | 96 | 977.1 |
| 20260507114532 | 37 | 274 | 0.0 | 0.0 | 0.00 | 0.00 | 0.00 | 96 | 977.1 |
| 20260507113851 | 36 | 274 | 0.0 | 0.0 | 0.00 | 0.00 | 0.00 | 96 | 977.1 |
| 20260507113214 | 35 | 274 | 0.0 | 0.0 | 0.00 | 0.00 | 0.00 | 96 | 977.2 |
| 20260507112533 | 35 | 274 | 0.0 | 0.0 | 0.00 | 0.00 | 0.00 | 97 | 977.1 |
| 20260507111856 | 34 | 274 | 0.0 | 0.0 | 0.00 | 0.00 | 0.00 | 98 | 977.2 |
| 20260507111215 | 33 | 274 | 0.0 | 0.0 | 0.00 | 0.00 | 0.00 | 98 | 977.1 |
| 20260507110537 | 33 | 274 | 0.0 | 0.0 | 0.00 | 0.00 | 0.00 | 98 | 976.9 |
| 20260507105856 | 32 | 274 | 0.0 | 0.0 | 0.00 | 0.00 | 0.00 | 98 | 976.9 |
| 20260507105219 | 32 | 274 | 0.0 | 0.0 | 0.00 | 0.00 | 0.00 | 97 | 976.8 |
| 20260507104539 | 32 | 274 | 0.0 | 0.0 | 0.00 | 0.00 | 0.00 | 97 | 976.7 |
| 20260507103900 | 33 | 274 | 0.0 | 0.0 | 0.00 | 0.00 | 0.00 | 96 | 976.6 |
| 20260507103219 | 33 | 274 | 0.0 | 0.0 | 0.00 | 0.00 | 0.00 | 95 | 976.7 |
| 20260507102542 | 34 | 274 | 0.0 | 0.0 | 0.00 | 0.00 | 0.00 | 95 | 976.6 |
| 20260507101901 | 34 | 274 | 0.0 | 0.0 | 0.00 | 0.00 | 0.00 | 95 | 976.7 |
| 20260507101224 | 34 | 274 | 0.0 | 0.0 | 0.00 | 0.00 | 0.00 | 94 | 976.6 |
| 20260507100543 | 34 | 274 | 0.0 | 0.0 | 0.00 | 0.00 | 0.00 | 93 | 976.5 |
| 20260507095905 | 35 | 274 | 0.0 | 0.0 | 0.00 | 0.00 | 0.00 | 92 | 976.4 |
| 20260507095224 | 36 | 274 | 0.0 | 0.0 | 0.00 | 0.00 | 0.00 | 92 | 976.4 |
| 20260507093906 | 37 | 274 | 0.0 | 0.0 | 0.00 | 0.00 | 0.00 | 90 | 976.3 |
| 20260507093228 | 38 | 274 | 0.0 | 0.0 | 0.00 | 0.00 | 0.00 | 88 | 976.4 |
| 20260507092547 | 38 | 274 | 0.0 | 0.0 | 0.00 | 0.00 | 0.00 | 87 | 976.3 |
| 20260507091910 | 39 | 274 | 0.0 | 0.0 | 0.00 | 0.00 | 0.00 | 86 | 976.2 |
| 20260507091229 | 39 | 274 | 0.0 | 0.0 | 0.00 | 0.00 | 0.00 | 85 | 976.4 |
| 20260507090552 | 39 | 274 | 0.0 | 0.0 | 0.00 | 0.00 | 0.00 | 84 | 976.3 |
| 20260507085911 | 39 | 274 | 0.0 | 0.0 | 0.00 | 0.00 | 0.00 | 83 | 976.3 |
| 20260507085233 | 40 | 274 | 0.0 | 0.0 | 0.00 | 0.00 | 0.00 | 82 | 976.3 |
| 20260507084552 | 40 | 274 | 0.0 | 0.0 | 0.00 | 0.00 | 0.00 | 81 | 976.3 |
| 20260507083915 | 41 | 274 | 0.0 | 0.0 | 0.00 | 0.00 | 0.00 | 81 | 976.4 |
| 20260507083234 | 41 | 274 | 0.0 | 0.0 | 0.00 | 0.00 | 0.00 | 80 | 976.4 |
| 20260507082557 | 41 | 274 | 0.0 | 0.0 | 0.00 | 0.00 | 0.00 | 80 | 976.4 |
| 20260507081916 | 41 | 274 | 0.0 | 0.0 | 0.00 | 0.00 | 0.00 | 79 | 976.4 |
| 20260507081238 | 41 | 274 | 0.0 | 0.0 | 0.00 | 0.00 | 0.00 | 79 | 976.4 |
| 20260507080557 | 41 | 274 | 0.0 | 0.0 | 0.00 | 0.00 | 0.00 | 78 | 976.3 |
| 20260507075920 | 42 | 274 | 0.0 | 0.0 | 0.00 | 0.00 | 0.00 | 77 | 976.4 |
| 20260507075239 | 42 | 274 | 0.0 | 0.0 | 0.00 | 0.00 | 0.00 | 76 | 976.4 |
| 20260507074602 | 42 | 274 | 0.0 | 0.0 | 0.00 | 0.00 | 0.00 | 76 | 976.5 |
| 20260507073921 | 42 | 274 | 0.0 | 0.0 | 0.00 | 0.00 | 0.00 | 75 | 976.5 |
| 20260507073243 | 42 | 274 | 0.0 | 0.0 | 0.00 | 0.00 | 0.00 | 75 | 976.4 |
| 20260507072602 | 42 | 274 | 0.0 | 0.0 | 0.00 | 0.00 | 0.00 | 75 | 976.5 |
| 20260507071925 | 43 | 274 | 0.0 | 0.0 | 0.00 | 0.00 | 0.00 | 75 | 976.5 |
| 20260507071244 | 43 | 274 | 0.0 | 0.0 | 0.00 | 0.00 | 0.00 | 74 | 976.5 |
| 20260507070607 | 43 | 274 | 0.0 | 0.0 | 0.00 | 0.00 | 0.00 | 75 | 976.7 |
| 20260507065248 | 43 | 274 | 0.0 | 0.0 | 0.00 | 0.00 | 0.00 | 74 | 976.7 |
| 20260507064607 | 43 | 274 | 0.0 | 0.0 | 0.00 | 0.00 | 0.00 | 73 | 976.7 |
| 20260507063930 | 43 | 274 | 0.0 | 0.0 | 0.00 | 0.00 | 0.00 | 73 | 976.7 |
| 20260507063249 | 43 | 274 | 0.0 | 0.0 | 0.00 | 0.00 | 0.00 | 73 | 976.7 |
| 20260507062612 | 43 | 274 | 0.0 | 0.0 | 0.00 | 0.00 | 0.00 | 73 | 976.7 |
| 20260507061931 | 43 | 256 | 0.0 | 0.0 | 0.00 | 0.00 | 0.00 | 72 | 976.8 |
| 20260507061253 | 44 | 274 | 0.0 | 0.0 | 0.00 | 0.00 | 0.00 | 72 | 976.8 |
| 20260507060612 | 44 | 271 | 0.0 | 0.0 | 0.00 | 0.00 | 0.00 | 72 | 976.9 |
| 20260507055254 | 44 | 333 | 1.0 | 0.0 | 0.00 | 0.00 | 0.00 | 72 | 976.9 |
| 20260507054617 | 44 | 318 | 0.0 | 0.0 | 0.00 | 0.00 | 0.00 | 72 | 976.9 |
| 20260507053936 | 44 | 318 | 0.0 | 0.0 | 0.00 | 0.00 | 0.00 | 72 | 976.9 |
| 20260507053258 | 44 | 318 | 0.0 | 0.0 | 0.00 | 0.00 | 0.00 | 72 | 976.9 |
| 20260507052617 | 44 | 304 | 1.0 | 0.0 | 0.00 | 0.00 | 0.00 | 72 | 977.0 |
| 20260507051940 | 44 | 309 | 0.0 | 0.0 | 0.00 | 0.00 | 0.00 | 71 | 977.0 |
| 20260507051259 | 44 | 248 | 0.0 | 0.0 | 0.00 | 0.00 | 0.00 | 70 | 977.0 |
| 20260507050621 | 44 | 221 | 1.0 | 0.0 | 0.00 | 0.00 | 0.00 | 70 | 976.9 |
| 20260507045941 | 44 | 287 | 0.0 | 0.0 | 0.00 | 0.00 | 0.00 | 70 | 976.9 |
| 20260507045306 | 44 | 287 | 0.0 | 0.0 | 0.00 | 0.00 | 0.00 | 70 | 977.0 |
| 20260507044622 | 44 | 287 | 0.0 | 0.0 | 0.00 | 0.00 | 0.00 | 69 | 977.0 |
| 20260507043945 | 44 | 287 | 0.0 | 0.0 | 0.00 | 0.00 | 0.00 | 68 | 976.8 |
| 20260507043304 | 44 | 287 | 0.0 | 0.0 | 0.00 | 0.00 | 0.00 | 68 | 976.9 |
| 20260507042626 | 44 | 287 | 0.0 | 0.0 | 0.00 | 0.00 | 0.00 | 67 | 976.8 |
| 20260507041945 | 44 | 287 | 0.0 | 0.0 | 0.00 | 0.00 | 0.00 | 67 | 976.8 |
| 20260507041308 | 44 | 287 | 0.0 | 0.0 | 0.00 | 0.00 | 0.00 | 67 | 976.9 |
| 20260507040627 | 45 | 287 | 0.0 | 0.0 | 0.00 | 0.00 | 0.00 | 67 | 976.9 |
| 20260507035950 | 45 | 287 | 0.0 | 0.0 | 0.00 | 0.00 | 0.00 | 67 | 976.8 |
| 20260507035309 | 45 | 287 | 0.0 | 0.0 | 0.00 | 0.00 | 0.00 | 66 | 976.8 |
| 20260507034631 | 45 | 287 | 0.0 | 0.0 | 0.00 | 0.00 | 0.00 | 66 | 976.7 |
| 20260507033950 | 45 | 287 | 0.0 | 0.0 | 0.00 | 0.00 | 0.00 | 66 | 976.8 |
| 20260507033313 | 45 | 287 | 0.0 | 0.0 | 0.00 | 0.00 | 0.00 | 65 | 976.8 |
| 20260507032632 | 45 | 287 | 0.0 | 0.0 | 0.00 | 0.00 | 0.00 | 65 | 976.9 |
| 20260507031954 | 45 | 287 | 0.0 | 0.0 | 0.00 | 0.00 | 0.00 | 65 | 976.9 |
| 20260507031313 | 45 | 287 | 0.0 | 0.0 | 0.00 | 0.00 | 0.00 | 65 | 976.9 |
| 20260507030636 | 46 | 287 | 0.0 | 0.0 | 0.00 | 0.00 | 0.00 | 65 | 976.9 |
| 20260507025955 | 46 | 287 | 0.0 | 0.0 | 0.00 | 0.00 | 0.00 | 64 | 976.9 |
| 20260507025318 | 46 | 287 | 0.0 | 0.0 | 0.00 | 0.00 | 0.00 | 64 | 977.0 |
| 20260507024637 | 46 | 287 | 0.0 | 0.0 | 0.00 | 0.00 | 0.00 | 64 | 977.0 |
| 20260507023959 | 46 | 287 | 0.0 | 0.0 | 0.00 | 0.00 | 0.00 | 63 | 976.9 |
| 20260507023318 | 46 | 253 | 0.0 | 0.0 | 0.00 | 0.00 | 0.00 | 64 | 976.9 |
| 20260507022641 | 46 | 188 | 0.0 | 0.0 | 0.00 | 0.00 | 0.00 | 64 | 976.9 |
| 20260507022000 | 46 | 304 | 1.0 | 0.0 | 0.00 | 0.00 | 0.00 | 63 | 976.9 |
| 20260507021322 | 46 | 308 | 0.0 | 0.0 | 0.00 | 0.00 | 0.00 | 63 | 976.9 |
| 20260507020641 | 46 | 308 | 0.0 | 0.0 | 0.00 | 0.00 | 0.00 | 63 | 976.7 |
| 20260507020004 | 47 | 308 | 0.0 | 0.0 | 0.00 | 0.00 | 0.00 | 63 | 976.7 |
| 20260507015323 | 47 | 308 | 2.0 | 0.0 | 0.00 | 0.00 | 0.00 | 63 | 976.6 |
| 20260507014646 | 47 | 240 | 1.0 | 0.0 | 0.00 | 0.00 | 0.00 | 63 | 976.6 |
| 20260507014005 | 47 | 235 | 3.0 | 0.0 | 0.00 | 0.00 | 0.00 | 63 | 976.6 |
| 20260507013327 | 47 | 240 | 0.0 | 0.0 | 0.00 | 0.00 | 0.00 | 62 | 976.5 |
| 20260507012646 | 47 | 240 | 0.0 | 0.0 | 0.00 | 0.00 | 0.00 | 62 | 976.5 |
| 20260507012009 | 47 | 240 | 0.0 | 0.0 | 0.00 | 0.00 | 0.00 | 61 | 976.4 |
| 20260507011328 | 47 | 240 | 0.0 | 0.0 | 0.00 | 0.00 | 0.00 | 61 | 976.3 |
| 20260507010650 | 48 | 240 | 0.0 | 0.0 | 0.00 | 0.00 | 0.00 | 60 | 976.3 |
| 20260507010009 | 48 | 240 | 0.0 | 0.0 | 0.00 | 0.00 | 0.00 | 59 | 976.2 |
| 20260507004651 | 48 | 255 | 4.0 | 5.0 | 0.00 | 0.00 | 0.00 | 59 | 976.1 |
| 20260507004014 | 48 | 208 | 0.0 | 0.0 | 0.00 | 0.00 | 0.00 | 59 | 975.9 |
| 20260507003333 | 48 | 236 | 1.0 | 4.0 | 0.00 | 0.00 | 0.00 | 58 | 975.9 |
| 20260507002655 | 49 | 326 | 1.0 | 4.0 | 0.00 | 0.00 | 0.00 | 58 | 975.8 |
| 20260507002014 | 49 | 257 | 2.0 | 0.0 | 0.00 | 0.00 | 0.00 | 57 | 975.7 |
| 20260507001337 | 49 | 278 | 0.0 | 4.0 | 0.00 | 0.00 | 0.00 | 56 | 975.5 |
| 20260507000018 | 50 | 314 | 3.0 | 5.0 | 0.00 | 0.00 | 0.00 | 54 | 975.2 |
| 20260506235338 | 50 | 274 | 2.0 | 3.0 | 0.00 | 0.00 | 0.00 | 53 | 975.1 |
| 20260506234700 | 50 | 359 | 4.0 | 0.0 | 0.00 | 0.00 | 0.00 | 52 | 975.2 |
| 20260506234019 | 51 | 276 | 2.0 | 10.0 | 0.00 | 0.00 | 0.00 | 52 | 975.2 |
| 20260506233342 | 51 | 287 | 3.0 | 4.0 | 0.00 | 0.00 | 0.00 | 52 | 975.3 |
| 20260506232701 | 50 | 250 | 5.0 | 0.0 | 0.00 | 0.00 | 0.00 | 51 | 975.2 |
| 20260506232023 | 51 | 215 | 6.0 | 3.0 | 0.00 | 0.00 | 0.00 | 52 | 975.1 |
| 20260506231343 | 51 | 328 | 0.0 | 5.0 | 0.00 | 0.00 | 0.00 | 51 | 975.0 |
| 20260506230705 | 51 | 245 | 5.0 | 0.0 | 0.00 | 0.00 | 0.00 | 51 | 975.0 |
| 20260506230024 | 51 | 238 | 1.0 | 0.0 | 0.00 | 0.00 | 0.00 | 51 | 975.0 |
| 20260506225347 | 52 | 250 | 3.0 | 4.0 | 0.00 | 0.00 | 0.00 | 50 | 975.0 |
| 20260506224706 | 52 | 256 | 2.0 | 0.0 | 0.00 | 0.00 | 0.00 | 50 | 975.0 |
| 20260506224029 | 52 | 212 | 0.0 | 0.0 | 0.00 | 0.00 | 0.00 | 50 | 975.0 |
| 20260506223348 | 52 | 250 | 4.0 | 0.0 | 0.00 | 0.00 | 0.00 | 49 | 974.9 |
| 20260506222710 | 52 | 335 | 7.0 | 3.0 | 0.00 | 0.00 | 0.00 | 48 | 974.9 |
| 20260506222029 | 52 | 283 | 4.0 | 0.0 | 0.00 | 0.00 | 0.00 | 49 | 974.9 |
| 20260506221352 | 52 | 276 | 2.0 | 3.0 | 0.00 | 0.00 | 0.00 | 49 | 974.9 |
| 20260506220711 | 52 | 278 | 0.0 | 6.0 | 0.00 | 0.00 | 0.00 | 48 | 974.8 |
| 20260506220034 | 52 | 288 | 4.0 | 5.0 | 0.00 | 0.00 | 0.00 | 49 | 974.7 |
| 20260506215353 | 53 | 217 | 2.0 | 0.0 | 0.00 | 0.00 | 0.00 | 47 | 974.8 |
| 20260506214715 | 53 | 294 | 3.0 | 11.0 | 0.00 | 0.00 | 0.00 | 47 | 974.8 |
| 20260506214034 | 53 | 236 | 3.0 | 6.0 | 0.00 | 0.00 | 0.00 | 48 | 974.8 |
| 20260506213357 | 53 | 229 | 1.0 | 0.0 | 0.00 | 0.00 | 0.00 | 48 | 974.6 |
| 20260506212716 | 53 | 235 | 0.0 | 0.0 | 0.00 | 0.00 | 0.00 | 47 | 974.7 |
| 20260506212039 | 53 | 269 | 6.0 | 3.0 | 0.00 | 0.00 | 0.00 | 46 | 974.7 |
| 20260506211358 | 52 | 203 | 6.0 | 7.0 | 0.00 | 0.00 | 0.00 | 47 | 974.5 |
| 20260506210721 | 53 | 264 | 9.0 | 7.0 | 0.00 | 0.00 | 0.00 | 45 | 974.8 |
| 20260506205402 | 53 | 256 | 6.0 | 5.0 | 0.00 | 0.00 | 0.00 | 45 | 974.7 |
| 20260506204721 | 53 | 173 | 4.0 | 0.0 | 0.00 | 0.00 | 0.00 | 45 | 974.6 |
| 20260506204044 | 53 | 3 | 5.0 | 0.0 | 0.00 | 0.00 | 0.00 | 46 | 974.6 |
| 20260506202726 | 53 | 259 | 4.0 | 0.0 | 0.00 | 0.00 | 0.00 | 45 | 974.7 |
| 20260506202045 | 53 | 256 | 8.0 | 6.0 | 0.00 | 0.00 | 0.00 | 44 | 974.7 |
| 20260506201407 | 54 | 266 | 2.0 | 0.0 | 0.00 | 0.00 | 0.00 | 44 | 974.8 |
| 20260506200727 | 54 | 281 | 2.0 | 5.0 | 0.00 | 0.00 | 0.00 | 45 | 974.8 |
| 20260506200049 | 53 | 298 | 1.0 | 5.0 | 0.00 | 0.00 | 0.00 | 45 | 974.9 |
| 20260506195408 | 54 | 257 | 5.0 | 5.0 | 0.00 | 0.00 | 0.00 | 44 | 975.1 |
| 20260506194731 | 54 | 262 | 9.0 | 9.0 | 0.00 | 0.00 | 0.00 | 44 | 975.2 |
| 20260506194050 | 53 | 146 | 1.0 | 2.0 | 0.00 | 0.00 | 0.00 | 47 | 975.1 |
| 20260506193413 | 52 | 260 | 2.0 | 3.0 | 0.00 | 0.00 | 0.00 | 48 | 975.1 |
| 20260506192732 | 52 | 224 | 2.0 | 3.0 | 0.00 | 0.00 | 0.00 | 47 | 975.2 |
| 20260506192054 | 52 | 280 | 6.0 | 9.0 | 0.00 | 0.00 | 0.00 | 46 | 975.0 |
| 20260506191414 | 52 | 170 | 1.0 | 0.0 | 0.00 | 0.00 | 0.00 | 46 | 975.2 |
| 20260506190736 | 52 | 255 | 2.0 | 3.0 | 0.00 | 0.00 | 0.00 | 47 | 975.3 |
| 20260506185418 | 52 | 280 | 6.0 | 4.0 | 0.00 | 0.00 | 0.00 | 47 | 975.3 |
| 20260506184737 | 51 | 255 | 5.0 | 3.0 | 0.00 | 0.00 | 0.00 | 48 | 975.2 |
| 20260506184100 | 51 | 312 | 6.0 | 7.0 | 0.00 | 0.00 | 0.00 | 48 | 975.3 |
| 20260506183419 | 51 | 255 | 6.0 | 7.0 | 0.00 | 0.00 | 0.00 | 49 | 975.1 |
| 20260506182742 | 51 | 231 | 3.0 | 3.0 | 0.00 | 0.00 | 0.00 | 49 | 975.2 |
| 20260506182101 | 51 | 338 | 5.0 | 6.0 | 0.00 | 0.00 | 0.00 | 49 | 975.3 |
| 20260506181423 | 51 | 203 | 2.0 | 0.0 | 0.00 | 0.00 | 0.00 | 50 | 975.3 |
| 20260506180742 | 51 | 238 | 7.0 | 9.0 | 0.00 | 0.00 | 0.00 | 49 | 975.5 |
| 20260506180105 | 51 | 252 | 5.0 | 0.0 | 0.00 | 0.00 | 0.00 | 49 | 975.4 |
| 20260506175424 | 51 | 323 | 2.0 | 0.0 | 0.00 | 0.00 | 0.00 | 50 | 975.4 |
| 20260506174747 | 51 | 264 | 4.0 | 6.0 | 0.00 | 0.00 | 0.00 | 50 | 975.4 |
| 20260506174153 | 51 | 231 | 0.0 | 0.0 | 0.00 | 0.00 | 0.00 | 51 | 975.6 |
| 20260506174106 | 51 | 231 | 0.0 | 0.0 | 0.00 | 0.00 | 0.00 | 51 | 975.6 |
| 20260506173526 | 50 | 288 | 3.0 | 3.0 | 0.00 | 0.00 | 0.00 | 52 | 975.6 |
| 20260506173429 | 50 | 288 | 3.0 | 3.0 | 0.00 | 0.00 | 0.00 | 52 | 975.6 |
| 20260506172927 | 50 | 240 | 6.0 | 4.0 | 0.00 | 0.00 | 0.00 | 52 | 975.7 |
| 20260506172748 | 50 | 240 | 6.0 | 4.0 | 0.00 | 0.00 | 0.00 | 52 | 975.7 |
| 20260506172110 | 50 | 236 | 4.0 | 0.0 | 0.00 | 0.00 | 0.00 | 53 | 975.7 |
| 20260506171430 | 50 | 194 | 4.0 | 3.0 | 0.00 | 0.00 | 0.00 | 54 | 975.8 |
| 20260506170752 | 50 | 309 | 3.0 | 4.0 | 0.00 | 0.00 | 0.00 | 54 | 975.8 |
| 20260506170111 | 50 | 329 | 2.0 | 0.0 | 0.00 | 0.00 | 0.00 | 54 | 975.9 |
| 20260506165434 | 50 | 217 | 0.0 | 0.0 | 0.00 | 0.00 | 0.00 | 54 | 975.8 |
| 20260506164753 | 49 | 328 | 2.0 | 0.0 | 0.00 | 0.00 | 0.00 | 54 | 975.8 |
| 20260506164116 | 49 | 238 | 5.0 | 5.0 | 0.00 | 0.00 | 0.00 | 56 | 975.8 |
| 20260506163435 | 49 | 195 | 2.0 | 0.0 | 0.00 | 0.00 | 0.00 | 55 | 975.8 |
| 20260506162758 | 49 | 290 | 4.0 | 7.0 | 0.00 | 0.00 | 0.00 | 55 | 975.8 |
| 20260506162117 | 50 | 225 | 3.0 | 0.0 | 0.00 | 0.00 | 0.00 | 54 | 975.7 |
| 20260506161439 | 50 | 312 | 4.0 | 0.0 | 0.00 | 0.00 | 0.00 | 53 | 975.8 |
| 20260506160758 | 50 | 281 | 4.0 | 5.0 | 0.00 | 0.00 | 0.00 | 54 | 975.8 |
| 20260506160618 | 50 | 285 | 5.0 | 10.0 | 0.00 | 0.00 | 0.00 | 55 | 975.8 |
| 20260506160214 | 50 | 285 | 5.0 | 10.0 | 0.00 | 0.00 | 0.00 | 55 | 975.8 |
| 20260506160121 | 50 | 285 | 5.0 | 10.0 | 0.00 | 0.00 | 0.00 | 55 | 975.8 |
| 20260506155440 | 49 | 180 | 3.0 | 2.0 | 0.00 | 0.00 | 0.00 | 55 | 975.8 |
| 20260506154844 | 49 | 187 | 0.0 | 5.0 | 0.00 | 0.00 | 0.00 | 54 | 975.8 |
| 20260506154803 | 49 | 187 | 0.0 | 5.0 | 0.00 | 0.00 | 0.00 | 54 | 975.8 |
| 20260506154122 | 50 | 248 | 8.0 | 14.0 | 0.00 | 0.00 | 0.00 | 53 | 975.7 |
| 20260506153445 | 49 | 269 | 4.0 | 6.0 | 0.00 | 0.00 | 0.00 | 56 | 975.7 |
| 20260506152804 | 49 | 253 | 5.0 | 3.0 | 0.00 | 0.00 | 0.00 | 56 | 975.6 |
| 20260506152127 | 49 | 280 | 7.0 | 3.0 | 0.00 | 0.00 | 0.00 | 57 | 975.6 |
| 20260506151446 | 49 | 243 | 7.0 | 3.0 | 0.00 | 0.00 | 0.00 | 57 | 975.5 |
| 20260506150808 | 49 | 148 | 4.0 | 0.0 | 0.00 | 0.00 | 0.00 | 58 | 975.6 |
| 20260506150128 | 49 | 166 | 3.0 | 0.0 | 0.00 | 0.00 | 0.00 | 59 | 975.6 |
| 20260506144809 | 49 | 159 | 1.0 | 0.0 | 0.00 | 0.00 | 0.00 | 64 | 975.4 |
| 20260506144132 | 48 | 176 | 4.0 | 0.0 | 0.00 | 0.00 | 0.00 | 64 | 975.6 |
| 20260506143451 | 48 | 153 | 3.0 | 6.0 | 0.00 | 0.00 | 0.00 | 68 | 975.6 |
| 20260506142814 | 47 | 162 | 0.0 | 0.0 | 0.00 | 0.00 | 0.00 | 68 | 975.7 |
| 20260506142133 | 47 | 165 | 5.0 | 0.0 | 0.00 | 0.00 | 0.00 | 68 | 975.7 |